Wind_Speed
12 12 5 1 3 5 3 2 2 1 1 2 3 2 4 4 3 1 3 3 2 3 3 3 0 3 2 3 7 5 3 5 5 5 3 2 9 23 24 28 37 37 37 33 30 28 26 25 24 23 22 21 20 20 20 20 20 20 20 21 21 20 21 20 19 19 18 18 17 17 17 17 17 17 16 16 16 15 15 14 14 15 15 14 13 14 14 13 12 11 11 10 10 11 11 12 12
12 11 4 2 3 4 2 2 3 1 1 4 4 4 4 2 3 4 6 5 5 3 2 1 2 2 3 2 4 3 1 1 3 3 1 8 17 20 26 35 39 37 37 33 31 29 27 26 24 23 22 22 21 20 20 20 20 21 21 21 21 20 20 19 18 18 18 18 17 17 17 17 18 18 17 17 16 15 15 14 14 15 15 13 13 14 13 13 12 11 10 10 11 11 11 12 12
11 9 3 2 3 2 1 2 1 2 3 7 4 3 3 4 5 7 10 9 6 3 2 2 1 2 4 3 1 2 2 2 3 1 3 14 14 19 31 36 37 37 36 33 31 29 27 26 24 23 22 22 21 20 20 20 21 21 22 22 21 20 19 19 18 18 18 18 17 17 17 18 18 18 17 17 16 15 15 14 14 15 14 13 14 14 13 12 11 10 10 10 11 12 12 12 13
9 7 2 2 2 3 3 1 1 4 5 6 3 4 3 5 6 7 10 9 4 3 3 2 1 0 1 3 2 0 1 1 3 3 5 10 12 24 33 33 36 35 35 33 31 29 27 26 24 23 22 22 21 20 21 21 21 21 22 22 21 20 19 18 18 18 18 17 17 17 18 18 18 17 17 17 16 15 15 14 13 14 14 13 14 13 12 12 11 10 10 11 11 12 13 13 13
8 4 1 1 2 1 2 1 2 4 5 4 2 4 4 5 6 7 8 6 4 2 3 1 1 1 1 3 2 1 2 3 4 5 6 11 20 30 32 33 35 33 34 32 31 30 27 26 24 23 22 21 21 21 21 21 22 22 22 22 21 20 19 18 18 19 18 17 17 17 18 18 17 17 17 17 16 16 15 14 14 14 14 13 13 13 12 11 11 10 10 11 11 12 13 14 14
4 1 1 2 1 1 2 2 2 4 3 2 2 4 3 3 4 6 7 6 5 2 2 2 1 1 1 2 0 0 1 4 5 6 10 19 28 31 31 32 33 32 33 31 30 29 27 25 24 23 22 21 21 21 21 21 22 22 22 22 21 20 19 18 19 19 19 18 18 18 18 18 17 17 17 16 16 16 15 15 14 14 13 13 13 13 13 12 11 10 10 11 12 13 14 14 14
1 1 2 2 1 1 2 4 3 3 3 2 2 4 3 4 3 4 7 6 5 4 2 1 1 0 1 1 1 2 3 4 5 9 17 27 32 32 32 31 32 32 31 31 29 28 26 25 24 23 22 21 21 21 22 22 22 22 22 22 21 20 20 19 20 20 19 19 18 18 18 18 17 17 17 16 16 15 14 14 14 14 13 13 13 13 13 12 10 10 11 12 13 14 14 14 14
3 1 1 2 0 2 1 4 2 2 3 4 3 6 6 5 3 3 6 2 2 4 4 4 1 2 3 1 1 2 2 6 8 16 27 32 34 32 31 31 32 31 30 30 28 27 25 24 24 22 22 22 22 22 22 22 22 22 22 22 21 21 21 20 20 20 20 20 19 19 18 18 18 17 16 15 15 14 14 14 14 14 13 13 13 13 13 12 10 10 12 13 14 14 15 15 15
3 2 1 2 1 0 1 2 1 1 2 4 5 6 8 7 3 2 5 4 3 3 4 5 0 1 4 0 2 1 4 14 17 23 31 32 34 33 32 32 33 31 29 29 27 26 24 24 24 22 22 22 22 22 22 22 22 22 22 22 21 21 21 21 20 20 20 20 19 19 18 18 17 17 16 15 14 14 13 13 13 13 13 13 13 13 13 12 11 12 13 14 14 15 15 16 15
2 2 2 1 1 2 3 1 1 2 2 4 4 5 7 8 7 4 5 6 4 3 5 3 1 3 2 1 1 1 8 21 25 26 30 32 33 34 33 32 33 33 30 28 27 26 25 24 23 23 23 22 22 22 22 22 22 22 22 22 22 21 21 21 20 21 20 20 19 19 18 17 17 16 15 15 14 13 13 12 12 12 12 12 12 12 13 13 12 13 14 14 15 15 16 16 15
2 2 2 2 1 2 3 1 1 3 4 4 4 6 5 5 9 9 6 6 5 4 5 2 1 3 2 2 0 5 17 27 27 27 30 31 31 32 33 32 33 34 31 28 27 26 25 24 23 23 22 23 23 22 22 22 22 22 21 22 22 22 21 21 21 21 20 20 19 19 18 17 17 16 15 14 14 13 12 12 12 12 12 12 12 12 13 13 12 13 14 14 15 15 16 17 16
2 1 3 2 2 2 2 0 2 3 4 4 4 5 3 3 5 6 8 9 5 5 5 2 3 2 3 2 1 7 19 26 27 28 31 31 30 31 32 32 33 32 31 29 27 26 25 24 23 23 22 23 22 22 22 22 22 21 22 23 23 22 21 21 21 20 20 19 19 19 18 17 16 15 15 14 14 13 12 12 12 12 12 12 12 13 13 13 12 13 14 14 15 15 16 17 17
2 2 4 2 2 2 2 1 3 3 3 3 4 5 4 4 4 4 6 8 5 5 6 6 4 4 3 3 3 6 12 23 28 29 32 32 31 31 32 33 32 31 30 28 27 26 25 25 23 22 23 22 22 22 22 22 21 21 22 23 22 22 22 21 20 20 19 19 18 18 18 17 16 15 14 14 13 12 12 12 12 12 13 13 12 14 14 13 12 12 14 15 15 16 17 17 18
2 2 4 1 1 2 2 0 2 2 3 4 4 5 5 2 4 3 2 5 5 3 7 5 5 4 3 3 4 4 9 24 31 30 32 32 31 32 32 33 31 30 29 28 27 26 25 25 24 23 23 23 22 22 22 21 21 21 23 23 22 22 21 21 20 19 19 19 18 17 17 16 15 15 14 13 12 12 12 12 12 12 13 13 13 15 14 13 12 11 13 14 14 15 16 17 18
2 1 3 1 2 1 1 1 1 1 3 4 3 3 5 3 3 3 3 1 5 4 6 5 4 3 4 7 7 7 15 30 33 32 33 32 33 33 33 32 31 30 28 28 27 26 26 25 24 24 24 23 22 22 21 21 21 22 23 23 22 22 21 21 20 19 19 18 17 17 16 15 14 14 13 13 12 11 11 12 12 13 14 14 14 15 14 13 11 10 10 11 12 13 14 16 16
2 2 3 2 1 1 1 1 0 1 3 4 4 2 4 6 1 1 2 3 5 4 4 3 2 1 4 8 9 15 25 33 34 34 35 33 33 33 33 32 30 29 28 27 27 26 27 25 25 25 24 23 22 22 21 20 21 22 23 23 22 22 21 20 19 19 18 18 17 16 16 15 14 13 13 12 11 11 11 12 12 13 14 15 16 16 14 12 10 8 9 10 11 11 12 13 13
2 3 3 2 0 1 2 2 0 0 4 5 6 2 2 7 2 1 3 4 5 4 3 4 3 2 3 5 12 28 33 34 34 34 33 29 31 33 31 31 30 28 27 26 26 27 27 26 26 25 24 24 23 23 21 21 22 24 24 23 22 21 20 19 18 18 17 16 16 15 14 14 13 13 12 11 11 11 10 11 12 13 14 16 17 16 15 12 9 8 9 10 10 10 11 11 11
2 3 2 0 1 2 3 4 2 2 3 5 6 3 1 7 4 3 3 2 3 4 4 4 4 3 2 3 19 32 33 33 34 32 27 22 26 31 30 30 28 27 28 26 26 28 27 27 27 26 25 25 24 23 23 23 24 25 24 22 21 20 19 18 17 17 16 16 15 14 13 12 12 12 12 11 10 10 10 10 11 12 14 16 16 15 14 12 9 9 10 10 9 9 10 9 9
2 2 1 2 4 3 4 4 2 3 3 5 7 4 2 5 3 3 4 4 4 4 5 4 5 2 5 7 17 25 25 24 24 24 23 22 24 26 26 27 27 27 27 26 26 27 27 27 27 26 26 25 24 24 25 25 25 24 23 22 21 20 19 18 17 17 16 16 15 14 12 11 10 10 10 10 10 10 10 9 10 12 14 16 16 14 13 12 10 10 10 10 9 9 9 8 8
2 2 1 4 5 4 4 4 5 5 4 5 7 4 3 3 2 1 3 6 6 4 5 3 6 4 7 9 9 14 21 19 15 14 15 21 24 23 24 24 25 28 28 26 26 25 27 27 27 26 25 25 25 26 26 25 25 24 22 21 20 20 19 19 18 17 17 16 14 13 12 11 10 9 10 10 9 9 9 9 10 11 13 16 16 14 13 11 10 10 10 8 8 7 7 6 6
2 3 4 5 4 3 5 6 6 6 3 4 5 4 5 3 1 1 1 5 6 4 4 4 6 5 7 9 5 8 17 17 16 14 12 17 22 23 24 24 26 28 27 26 24 25 27 27 27 26 24 25 27 27 26 25 24 23 22 21 20 20 20 19 18 17 16 15 14 13 12 11 10 10 10 10 9 8 8 8 9 10 13 16 16 14 14 12 10 10 10 8 7 5 5 4 5
2 2 5 5 3 3 7 6 6 5 3 3 4 4 5 2 2 4 4 3 5 3 4 6 6 4 1 3 7 9 11 12 16 16 14 16 21 24 25 25 27 27 26 25 24 26 27 27 27 25 25 26 27 27 26 25 24 23 22 22 22 21 20 18 17 16 15 14 13 12 12 10 9 9 9 9 8 7 6 6 7 9 11 15 16 14 14 13 11 12 11 8 6 4 3 3 3
2 3 4 6 5 4 5 4 5 5 4 3 4 3 3 2 3 2 4 5 6 4 5 7 6 4 1 1 6 12 13 12 15 20 20 20 23 25 25 25 27 27 26 24 25 26 26 26 26 25 26 27 27 26 25 24 23 23 23 22 22 21 19 17 16 15 14 13 12 11 10 9 9 8 8 8 7 6 6 5 5 6 9 14 16 15 14 14 14 13 11 7 4 3 3 3 2
2 3 4 6 5 5 4 3 3 3 4 5 3 2 3 3 3 2 2 6 7 6 6 5 7 5 2 3 8 13 19 17 16 23 26 24 26 27 26 26 28 28 25 24 25 26 27 26 25 25 27 27 26 25 24 24 23 23 23 21 20 19 17 15 14 14 14 12 11 10 9 8 8 7 7 6 5 5 5 4 4 5 7 12 16 15 14 15 15 13 8 5 2 2 3 5 4
3 4 3 3 3 4 5 4 5 3 3 5 3 5 5 3 1 1 5 6 6 5 4 4 6 5 2 5 9 11 14 18 17 22 24 24 27 28 26 26 27 27 25 25 25 26 27 26 25 26 28 27 26 25 24 24 24 23 22 20 18 16 14 13 13 13 13 11 11 9 9 9 8 7 5 5 4 4 4 4 4 5 6 9 14 15 14 14 15 12 7 4 2 1 4 7 5
4 4 3 2 4 5 4 3 3 2 3 2 3 7 4 2 3 2 3 4 5 4 2 3 5 4 2 2 9 11 12 16 16 19 24 27 30 28 25 26 26 26 26 26 25 26 27 26 25 26 28 27 25 25 24 24 24 23 21 19 17 15 13 12 12 12 11 10 11 9 8 9 8 7 5 4 4 3 4 5 5 6 6 7 11 14 14 14 14 11 6 4 2 2 6 8 7
4 3 3 4 5 5 1 2 4 2 4 2 2 7 4 2 2 2 3 3 3 4 3 3 5 6 4 3 7 11 13 16 18 20 21 23 28 27 25 25 24 25 26 26 25 26 27 26 25 27 27 26 25 24 24 24 23 22 20 18 16 13 13 13 13 12 10 10 10 9 8 9 8 7 6 5 4 3 4 5 6 7 7 7 9 12 13 13 12 10 7 4 2 3 6 6 6
2 1 4 5 5 6 4 5 5 2 3 3 4 4 4 2 1 3 5 3 3 4 4 5 5 5 4 1 8 8 9 12 19 19 16 15 21 25 26 26 25 25 26 26 26 27 27 26 26 27 28 26 25 24 24 24 22 21 19 17 15 12 13 13 12 12 10 11 11 10 10 10 9 8 7 6 6 4 4 5 6 7 7 8 9 10 11 12 11 10 7 4 2 3 4 4 5
2 3 4 7 7 6 4 4 3 4 2 2 3 3 4 3 4 5 5 2 2 4 4 6 4 4 5 2 7 6 6 7 12 15 19 20 20 24 27 27 28 26 26 26 26 26 27 26 26 27 27 25 24 23 23 23 21 20 18 16 14 12 13 14 13 12 12 12 11 9 8 7 6 7 7 7 6 6 6 6 7 6 7 7 8 9 10 11 11 10 8 6 3 2 3 4 4
2 2 2 4 7 6 4 2 2 2 1 1 2 1 4 5 7 5 5 3 3 5 5 5 3 3 3 2 5 3 4 5 9 17 26 29 26 28 29 28 28 26 25 26 25 26 27 26 26 27 27 25 23 22 22 21 20 19 17 15 13 12 13 15 14 12 13 12 9 6 4 1 2 5 7 7 7 7 7 8 8 6 6 6 7 8 9 10 10 9 7 6 4 2 3 5 6
2 2 2 3 3 4 5 2 2 1 1 4 5 1 4 6 6 5 5 3 3 3 4 5 3 4 4 2 10 4 2 8 16 26 30 31 28 26 27 26 25 24 25 26 25 25 26 26 25 27 26 24 22 21 21 20 19 17 16 14 13 12 13 16 15 13 13 10 8 5 3 1 3 5 8 8 8 7 7 8 7 6 6 6 7 8 8 9 9 9 7 5 4 3 4 6 8
3 2 3 3 1 4 8 4 2 2 2 5 5 1 4 6 5 5 4 3 2 2 3 4 3 5 5 7 12 5 3 10 18 26 24 23 23 22 24 24 24 25 26 27 26 25 25 25 25 26 25 23 22 20 20 19 17 16 15 13 13 12 13 16 15 13 12 10 8 5 3 1 2 3 7 9 8 7 7 7 8 7 6 7 8 8 9 9 9 9 7 5 4 4 5 7 9
3 2 2 3 2 3 6 5 2 1 1 5 5 1 3 5 4 5 5 4 3 3 3 4 5 6 7 9 10 6 5 8 9 15 16 17 21 23 26 26 26 27 28 28 27 26 25 24 24 25 24 23 21 20 19 17 16 15 14 13 12 13 14 16 16 13 12 10 8 5 3 1 1 3 6 8 9 9 8 7 8 7 6 6 8 8 9 9 9 8 7 5 4 4 6 7 8
4 3 1 2 2 3 4 6 3 2 3 4 3 1 2 5 5 5 6 5 3 4 5 6 6 7 7 8 7 5 5 6 7 9 13 16 19 23 26 27 27 27 28 29 29 27 26 25 24 24 24 22 21 20 18 15 14 14 14 13 13 14 14 15 15 13 12 11 8 5 2 0 0 2 6 7 9 9 8 6 6 7 6 6 8 9 9 8 8 7 6 5 4 4 6 8 8
2 2 2 3 3 3 4 5 2 2 4 4 2 1 2 4 5 4 6 5 3 4 6 6 7 6 5 5 4 3 4 6 7 11 16 16 19 23 25 26 26 26 27 28 28 27 26 25 25 24 23 22 21 19 17 15 14 14 15 15 15 15 15 16 16 14 13 11 8 5 2 1 1 2 4 6 8 9 9 7 6 6 7 6 8 10 9 9 8 7 6 5 4 4 5 8 7
1 1 1 3 4 5 5 6 3 2 4 5 2 0 2 4 4 4 5 5 3 5 6 6 6 4 3 4 4 4 4 4 7 13 17 14 15 20 22 23 23 24 25 26 27 27 27 26 25 24 23 22 21 20 18 16 16 16 17 18 17 16 16 17 16 15 13 10 8 5 3 2 1 2 3 5 7 9 10 9 7 6 7 8 9 9 9 9 9 8 7 6 5 4 5 7 6
1 0 1 3 4 5 5 5 3 3 4 2 1 1 3 3 4 4 5 5 3 5 5 4 5 3 2 4 5 5 4 4 7 13 16 14 13 15 19 21 22 23 24 26 27 27 28 28 27 25 22 21 21 21 20 19 19 19 18 19 18 17 17 17 16 15 12 10 8 6 3 2 2 3 4 4 5 8 9 10 9 7 7 8 9 9 8 9 9 8 8 7 7 6 5 6 6
1 1 1 3 3 3 6 5 3 3 3 0 1 3 4 3 4 4 4 4 3 2 2 3 5 3 2 5 7 5 4 5 8 9 12 15 14 14 17 21 23 25 25 26 28 28 28 28 27 25 22 22 21 21 21 21 21 21 20 19 18 18 18 17 16 14 12 10 9 7 4 3 2 2 3 2 3 6 9 10 10 9 8 9 9 9 8 8 8 7 7 8 8 8 7 5 6
1 1 0 3 1 1 5 6 6 3 2 1 3 4 3 3 4 3 3 3 3 3 3 2 4 4 2 4 7 5 5 7 8 7 9 14 15 15 16 18 20 23 25 26 26 28 29 28 27 25 23 23 22 21 22 21 21 20 18 17 18 18 17 16 14 12 12 11 10 8 5 3 2 2 1 1 1 3 6 10 11 11 10 9 9 8 7 7 6 6 6 8 8 8 7 8 9
3 2 2 2 2 2 2 4 6 5 2 2 2 3 2 3 3 3 2 2 2 3 2 1 2 4 4 5 5 4 5 7 8 7 8 11 13 14 14 15 16 19 22 24 24 26 28 28 27 25 24 24 23 22 22 22 21 18 15 15 16 16 15 15 13 12 12 11 11 9 6 4 2 2 3 1 1 1 3 7 10 11 11 11 10 8 7 6 5 5 5 6 8 7 6 7 10
3 5 4 3 4 4 3 2 2 3 4 2 3 3 3 3 2 2 2 3 2 3 2 2 2 4 6 6 5 3 2 4 7 8 8 9 10 11 13 15 16 17 21 23 24 25 27 28 27 25 25 24 23 23 23 23 21 18 14 13 15 14 13 14 14 13 13 13 12 10 7 5 2 2 2 1 1 1 2 4 7 10 10 11 11 9 7 6 5 5 5 6 7 7 7 7 8
2 3 5 5 5 5 3 3 2 2 3 2 2 3 2 3 2 2 2 2 2 1 1 2 3 5 6 4 5 5 4 3 6 7 7 8 10 11 13 16 17 18 21 24 25 26 27 28 27 25 24 24 23 24 25 24 22 20 17 15 15 14 12 14 14 13 13 14 13 11 8 6 3 3 2 1 2 2 2 3 5 8 8 9 10 10 8 7 6 5 5 6 6 7 8 8 7
3 3 2 4 5 5 5 4 3 2 0 2 2 3 1 3 2 1 2 1 2 3 2 4 4 5 6 4 5 7 6 5 6 5 5 7 10 12 13 17 19 20 22 24 23 23 25 26 26 25 24 23 23 25 26 25 23 21 19 18 18 16 15 14 13 12 12 13 13 11 9 7 5 4 2 1 3 4 4 4 5 7 7 7 7 8 8 8 7 7 5 6 6 7 8 8 9
2 4 3 4 5 5 4 4 3 2 2 2 3 3 3 2 2 2 1 1 1 3 4 4 3 4 6 6 6 8 8 7 6 6 7 8 10 11 13 17 20 21 22 22 21 22 23 23 24 24 24 23 24 26 27 25 23 21 20 19 18 17 16 13 11 11 11 13 13 12 10 9 6 5 4 3 4 4 5 5 5 7 7 6 6 7 7 7 8 8 7 6 6 6 6 7 9
3 4 3 4 4 4 3 3 2 1 3 3 5 3 3 1 3 4 2 1 1 1 2 3 3 4 4 5 5 7 7 7 7 8 9 9 10 12 14 17 19 19 19 20 21 21 20 20 22 21 20 20 23 25 25 24 23 21 20 19 18 17 15 13 10 9 10 12 13 12 11 10 8 7 6 5 5 4 4 5 6 7 7 7 6 6 7 7 8 8 8 7 8 8 7 7 8
3 1 3 4 4 3 3 3 3 3 4 2 5 4 3 2 3 3 3 2 2 3 3 2 4 4 4 5 5 5 5 6 6 6 6 8 11 14 15 16 16 16 16 18 18 18 18 18 18 18 19 21 22 23 23 23 23 21 20 19 18 17 15 13 10 8 10 13 13 12 11 11 11 10 9 7 6 5 4 5 6 7 8 8 8 8 8 8 8 8 8 8 9 9 9 9 9
2 2 4 4 3 3 3 2 3 4 2 2 5 4 4 1 3 1 1 2 3 3 4 2 2 3 4 4 4 5 5 5 4 5 6 8 13 15 14 15 14 13 14 14 15 17 18 18 16 17 21 23 22 22 22 22 22 21 19 19 19 18 16 14 11 10 11 13 13 12 10 11 12 12 11 10 8 7 6 6 6 7 8 8 8 8 8 9 9 8 7 8 8 9 11 11 10
3 2 3 3 3 3 3 3 3 4 1 2 4 3 3 3 2 2 1 3 3 3 4 4 2 1 4 4 4 4 5 5 5 6 7 8 9 11 12 12 12 12 13 13 14 15 17 18 17 17 20 21 20 21 21 20 22 21 19 18 18 18 17 16 14 13 13 14 13 12 11 11 13 14 14 13 11 9 8 7 7 7 8 7 7 6 6 7 9 9 7 7 7 8 10 12 12
3 3 3 2 2 2 2 3 3 1 1 2 2 2 3 1 3 3 4 4 3 4 4 4 4 3 2 4 4 4 5 5 5 6 8 6 6 8 10 11 12 13 14 14 14 14 16 18 18 17 17 15 15 18 20 20 20 21 20 18 17 16 16 16 15 15 15 14 13 12 12 13 14 14 15 15 13 10 9 8 7 6 6 6 6 6 5 6 9 10 9 9 8 7 8 10 12
2 1 1 2 1 2 1 1 1 1 1 3 3 2 2 1 1 3 6 4 3 3 3 3 3 1 2 4 5 5 5 5 5 6 7 6 5 6 9 11 11 11 12 14 15 14 14 15 15 15 14 12 12 16 20 20 20 20 19 19 17 15 17 17 16 16 15 14 13 13 14 14 15 15 15 15 14 12 9 7 6 6 5 5 6 6 7 8 9 11 11 10 9 9 8 8 10
1 2 2 2 1 2 0 1 2 0 2 3 4 1 1 2 1 4 5 2 1 2 3 3 2 3 4 6 6 5 4 4 4 5 6 6 5 6 8 9 9 9 11 14 16 15 13 11 10 11 11 10 11 15 18 19 20 20 19 18 17 16 17 18 17 16 15 14 13 14 15 15 16 16 16 16 15 13 11 9 7 7 6 6 5 6 8 9 10 11 11 11 10 10 9 9 9
1 1 2 1 1 2 2 1 2 2 1 2 3 1 1 1 1 3 3 2 3 5 6 6 6 6 6 6 5 5 4 3 4 5 6 5 6 8 8 8 8 9 9 11 13 12 10 8 7 7 9 9 11 15 19 19 19 19 19 18 18 18 19 18 18 17 16 14 14 15 15 16 17 18 18 18 17 16 14 12 10 9 8 8 7 7 8 9 11 12 12 12 12 12 11 11 10
0 1 0 1 1 3 3 1 2 1 2 2 2 1 2 1 0 3 5 5 5 7 7 7 7 6 6 6 5 5 4 4 4 4 4 4 6 8 8 7 7 7 8 9 9 8 8 7 7 6 8 12 15 18 20 20 17 17 18 18 18 18 19 19 19 18 17 15 14 14 15 17 17 18 19 20 19 19 18 16 13 12 11 10 10 10 10 10 11 12 12 12 12 13 13 13 13
2 0 2 2 2 3 3 2 2 3 2 1 2 1 2 2 1 3 6 7 6 7 7 6 6 5 5 5 6 6 6 5 4 4 4 3 6 8 7 7 6 6 8 8 6 5 6 8 8 8 11 16 18 18 18 19 18 18 18 17 16 17 18 19 20 19 17 16 15 15 16 17 17 17 18 19 19 19 19 18 17 15 14 13 13 13 13 13 13 12 12 12 11 11 12 13 13
3 3 2 2 2 1 1 1 1 2 2 1 2 2 1 2 2 4 6 7 6 6 6 6 6 5 5 5 6 7 7 5 4 4 3 2 5 7 7 8 7 6 6 5 3 2 5 8 10 13 16 17 16 15 16 17 19 19 18 18 19 19 19 19 19 18 17 17 16 15 16 16 16 16 16 16 16 16 16 17 18 18 17 16 15 15 15 16 16 16 14 13 12 11 12 12 12
2 2 1 1 2 2 1 1 1 2 1 1 1 2 1 2 3 5 6 5 5 5 5 5 6 5 5 5 6 6 5 5 4 5 4 2 4 4 5 7 6 4 4 5 5 6 9 10 11 13 14 14 14 13 14 16 18 18 17 19 21 22 22 20 19 18 19 18 14 14 16 15 14 14 14 13 13 14 14 14 15 17 18 18 18 17 17 17 18 19 18 16 15 13 13 13 12
1 1 1 1 2 1 1 1 1 3 2 1 1 1 2 2 3 5 6 5 4 5 4 4 5 5 6 6 6 5 5 5 4 5 5 4 4 4 2 3 4 4 4 6 7 8 9 9 9 10 10 12 13 12 12 15 17 16 17 19 21 21 21 20 18 17 17 15 12 14 16 14 11 10 10 11 12 11 11 12 14 15 16 17 18 18 18 18 19 19 20 20 19 17 17 16 15
4 3 2 2 2 2 2 2 2 2 3 2 2 1 2 2 2 3 4 4 4 5 5 5 5 6 7 6 6 6 6 5 5 5 6 5 5 6 5 3 4 4 4 4 5 6 6 6 6 7 7 10 11 11 11 13 14 14 15 16 17 17 16 16 16 15 14 13 12 14 16 15 12 10 8 8 10 11 12 14 14 14 15 15 16 17 18 19 20 20 20 19 19 20 20 20 20
Wind_Direction
360 356 353 124 114 128 137 89 99 301 92 264 260 204 244 216 204 241 253 241 200 242 231 250 188 146 131 174 184 179 157 166 169 151 210 282 138 151 152 151 150 148 149 150 151 151 150 148 147 148 148 145 143 142 141 136 134 131 129 129 126 123 121 119 119 118 118 116 114 112 109 108 104 100 96 97 100 100 100 100 102 100 98 97 96 93 91 90 87 86 83 83 81 79 77 75 74
350 355 11 107 88 132 188 73 113 281 79 263 245 178 231 203 186 224 238 220 196 249 280 258 56 89 19 28 145 137 174 271 162 155 283 128 129 142 149 149 149 147 148 148 149 149 148 147 147 148 148 145 144 144 141 137 135 132 130 128 124 122 121 120 119 119 118 116 114 111 109 106 102 99 96 96 99 99 99 100 100 99 98 98 97 92 90 89 87 86 84 82 80 79 77 74 74
346 355 17 114 64 76 116 63 124 153 164 235 242 208 209 168 197 220 237 232 219 276 305 276 24 70 34 25 127 164 247 304 140 115 110 133 131 144 149 148 148 147 146 147 148 149 148 147 148 149 147 145 144 144 141 137 135 133 130 127 125 123 122 121 119 119 117 115 112 111 108 104 101 99 99 99 100 100 99 99 99 99 98 95 95 93 90 89 88 87 85 81 78 77 76 75 75
345 351 3 128 53 27 78 86 161 147 193 222 248 269 203 190 221 230 246 253 276 319 296 299 304 209 112 194 192 95 253 183 135 122 129 141 144 148 148 146 145 144 144 147 148 148 148 147 148 148 147 146 145 144 141 138 135 133 130 128 126 124 123 122 119 119 117 114 112 110 108 103 100 100 101 102 101 100 98 97 96 96 96 94 93 92 90 90 90 89 86 80 76 75 75 76 77
340 341 358 100 103 93 110 144 147 163 208 184 200 261 206 201 231 246 267 291 321 293 246 211 253 289 140 206 179 142 170 138 124 124 125 134 144 147 146 145 143 141 143 146 148 148 148 148 148 147 147 145 145 143 141 138 136 133 131 129 127 126 124 121 120 118 115 113 111 110 107 103 100 100 102 102 101 100 98 96 94 92 93 95 94 93 94 93 93 90 85 79 75 76 77 78 78
342 30 58 54 104 165 137 198 198 198 228 131 163 247 229 234 244 261 293 322 323 274 228 200 227 241 154 308 198 124 79 133 133 132 132 137 146 147 145 144 141 140 143 147 149 149 148 148 148 147 146 145 145 143 141 138 136 134 132 130 128 126 124 122 120 117 114 112 110 109 107 104 102 103 103 101 101 99 98 97 96 95 95 95 94 96 98 96 95 91 84 80 79 80 80 78 78
41 86 35 60 41 24 147 231 231 204 281 318 213 259 272 275 282 302 312 332 334 321 322 304 93 70 225 285 178 10 8 136 132 140 144 143 147 146 145 143 139 140 143 147 149 148 147 147 147 147 147 146 145 143 141 139 137 135 133 131 128 126 124 122 119 116 114 112 109 108 107 105 103 103 102 101 100 98 99 99 99 98 97 95 94 96 99 98 97 92 84 82 82 82 82 79 78
131 126 40 101 102 16 168 245 256 181 268 300 288 282 284 270 261 305 302 320 319 302 321 314 12 336 267 234 144 5 33 128 128 140 144 144 146 145 144 142 138 140 144 147 149 146 146 147 148 148 147 146 145 144 142 140 139 136 134 131 129 127 125 123 119 116 114 112 110 109 108 107 105 104 103 101 100 99 101 101 101 101 99 98 96 97 99 101 99 94 88 84 82 81 83 82 80
109 80 99 109 148 293 266 254 283 229 252 295 297 294 301 294 266 243 281 287 252 258 294 292 341 285 259 138 97 43 98 126 132 139 143 146 147 145 144 142 141 142 145 148 148 146 146 147 148 148 148 147 146 144 143 141 140 138 135 132 130 128 126 123 121 118 116 114 113 111 110 109 108 107 104 102 101 101 102 103 103 103 102 100 100 101 103 102 99 96 91 85 82 82 84 85 84
54 45 129 110 127 223 273 345 41 278 266 268 275 282 292 299 300 274 270 285 275 272 280 293 126 207 223 116 104 108 130 132 135 139 144 148 147 146 144 143 144 144 145 147 148 147 147 148 148 149 149 148 147 145 144 142 140 138 135 133 131 129 127 125 123 121 119 118 116 114 112 111 110 108 105 104 103 102 102 103 103 105 106 105 105 106 106 102 99 95 91 87 84 84 85 87 86
32 352 113 117 139 212 246 356 2 282 283 288 283 265 262 289 309 303 301 294 288 297 287 345 151 205 118 148 130 136 142 137 139 142 145 147 146 145 143 143 145 146 147 148 148 148 147 149 149 150 149 148 147 146 144 143 141 139 136 135 133 131 129 127 125 123 122 120 118 117 115 113 112 110 107 105 103 102 102 102 104 107 111 111 110 110 106 101 99 95 90 88 85 85 88 89 88
76 314 75 123 198 191 196 21 283 284 305 316 291 270 297 323 303 294 304 300 307 327 288 249 198 162 108 211 139 144 145 138 143 144 146 148 146 144 143 143 143 146 148 149 148 147 148 149 149 150 149 148 147 147 145 144 143 140 138 137 135 132 130 128 126 124 122 120 119 118 117 115 113 111 108 105 104 104 102 103 105 111 117 117 114 113 107 101 98 94 91 89 87 88 91 92 91
116 163 91 132 197 162 192 239 248 283 316 289 263 279 327 326 278 259 286 295 316 332 274 220 180 121 140 207 133 158 151 142 145 145 147 148 146 145 142 141 142 145 147 148 147 148 149 148 149 149 148 148 149 148 147 145 143 140 139 139 135 132 130 129 127 124 122 120 119 119 118 116 114 112 109 107 106 106 104 104 108 115 121 121 118 115 108 102 99 95 93 90 89 92 94 95 96
147 156 114 169 277 135 186 237 267 276 280 254 251 295 324 295 270 297 339 308 300 274 273 245 169 135 158 172 141 181 156 146 148 148 149 147 146 144 140 140 141 144 147 148 148 149 149 148 149 148 147 148 149 148 146 146 143 141 141 139 135 132 131 129 127 124 122 120 119 118 118 117 114 112 110 108 108 109 108 108 114 120 124 126 121 115 108 103 101 97 95 92 92 94 96 98 99
164 124 99 110 355 4 207 207 258 221 254 263 252 299 320 271 272 339 78 345 282 254 293 284 177 173 185 183 181 183 157 151 152 150 149 147 145 141 139 139 141 145 148 149 149 150 149 149 149 148 148 148 148 147 145 146 144 143 141 138 134 132 131 129 127 125 123 121 120 120 120 118 115 113 111 109 109 111 111 111 118 126 129 130 121 113 109 106 105 101 98 95 95 97 98 100 100
147 99 73 64 14 331 252 219 46 132 243 263 267 306 317 284 331 18 156 152 272 281 311 276 215 279 209 206 185 159 156 155 153 151 148 145 142 138 138 139 143 147 149 151 151 151 150 150 150 148 149 149 149 147 146 147 145 143 141 137 134 134 133 130 128 127 125 124 124 124 124 123 120 116 113 111 112 114 114 113 121 131 134 133 124 117 116 114 111 106 102 101 99 101 103 103 99
71 76 69 36 341 231 241 232 167 212 256 270 286 344 334 291 350 7 237 186 246 280 290 251 254 302 264 239 155 150 156 155 152 149 144 142 139 136 139 141 144 147 149 151 151 152 153 153 152 151 152 151 151 150 150 148 145 144 141 138 138 138 136 133 131 129 128 128 127 126 125 125 123 122 119 116 115 115 115 114 121 133 137 136 133 126 123 121 120 114 107 108 106 103 107 106 97
63 83 99 172 214 209 208 215 205 202 255 272 288 345 348 289 317 344 304 232 255 292 269 257 278 318 339 153 145 153 158 154 152 148 142 142 142 139 141 144 145 147 149 149 152 154 154 154 154 155 155 154 155 155 152 148 147 146 143 143 143 143 141 137 135 131 130 129 126 122 122 124 125 126 124 123 121 117 118 117 120 132 140 141 141 135 126 126 129 120 112 113 113 108 109 109 99
116 118 116 221 208 218 222 222 230 207 236 272 286 312 275 264 292 352 320 292 333 310 270 270 271 307 73 129 152 155 147 144 149 144 145 149 145 141 142 146 147 148 150 149 150 153 155 156 158 158 158 159 158 155 152 150 150 148 146 147 147 147 144 139 136 132 129 127 125 122 121 124 127 128 126 128 128 122 120 119 121 131 142 145 146 141 130 130 134 126 119 117 113 107 106 108 100
158 121 167 243 214 231 256 230 238 236 244 280 286 294 257 251 280 349 318 301 309 272 260 267 247 210 144 163 165 139 130 135 141 139 152 149 142 143 144 146 148 147 150 150 148 152 158 159 160 162 162 162 158 154 153 152 151 150 149 150 150 148 143 140 138 133 130 129 128 126 124 127 129 131 133 135 134 130 127 126 128 132 144 150 151 147 134 130 136 132 124 115 106 99 96 95 89
158 131 185 236 201 220 261 232 238 249 231 254 279 298 282 267 219 221 336 310 294 256 251 253 237 223 174 167 158 135 139 142 141 147 159 147 142 143 144 147 147 148 150 149 147 154 160 162 164 164 164 162 157 155 154 153 152 152 152 152 150 147 144 144 141 136 133 132 132 131 129 129 131 136 140 142 143 143 143 140 138 138 144 153 156 152 139 131 135 132 124 114 101 90 80 74 71
167 206 207 218 163 201 257 239 242 242 199 228 269 288 281 272 211 203 171 228 265 236 253 264 250 255 260 152 167 158 149 147 147 151 155 153 148 143 145 147 145 147 150 149 149 156 162 165 167 166 165 162 158 157 155 155 155 153 152 152 151 149 150 149 145 142 141 140 140 139 136 132 130 135 140 145 150 154 157 150 143 139 143 154 160 159 147 137 136 131 122 112 94 77 63 49 46
184 255 233 217 184 198 243 231 230 211 178 219 242 262 264 290 286 210 176 221 254 261 273 277 275 274 4 334 202 167 154 162 161 155 159 163 151 145 147 145 144 148 150 151 152 158 164 167 169 169 166 162 160 159 157 157 156 154 154 154 153 153 155 154 151 150 150 152 151 149 146 141 134 136 139 144 153 159 163 159 150 145 142 154 163 164 156 145 141 136 128 116 86 59 39 10 340
167 253 251 229 216 215 245 254 249 203 195 235 250 280 249 256 299 350 280 258 269 286 288 278 293 294 208 208 218 183 163 164 167 160 162 160 147 145 147 143 145 150 152 151 153 159 165 170 172 170 166 163 163 161 160 158 157 156 156 157 156 156 158 158 157 158 160 162 164 162 159 156 146 142 140 143 153 158 165 166 166 164 149 157 167 169 166 156 152 152 148 138 106 44 357 334 301
178 228 250 261 262 254 284 307 315 329 260 263 294 273 249 218 209 307 286 277 287 291 294 286 294 296 230 196 196 190 168 160 161 158 156 150 141 142 144 143 146 152 156 155 154 160 168 173 173 171 167 165 165 164 163 160 159 159 158 158 158 158 160 163 166 169 171 173 176 177 175 172 165 157 150 151 163 167 173 175 173 180 167 164 172 175 174 168 166 172 171 166 170 336 327 318 294
217 207 223 257 275 272 305 313 305 318 273 271 282 279 288 264 235 249 270 293 306 291 293 313 314 333 19 135 165 176 174 160 159 156 152 146 140 138 142 146 149 155 160 157 155 161 171 176 173 171 169 168 168 166 165 163 162 162 160 160 160 162 168 175 180 181 181 181 182 184 185 181 174 168 165 173 181 179 181 184 180 181 183 179 180 182 183 180 181 189 195 196 202 306 316 306 282
226 216 235 244 274 283 305 242 256 259 261 210 226 287 314 297 279 255 279 343 338 313 320 4 357 352 12 59 135 169 180 162 161 158 148 143 139 139 144 149 152 156 159 158 158 164 174 176 173 172 171 171 170 168 168 166 166 164 163 163 163 168 175 182 187 190 189 182 178 173 169 167 166 169 177 192 199 200 189 188 187 182 186 190 191 192 193 195 196 203 215 222 234 301 309 300 271
256 318 294 289 314 293 238 237 251 192 246 165 157 288 316 330 353 251 281 353 359 323 336 17 14 345 336 126 135 176 202 160 157 152 133 131 136 142 148 153 154 156 160 161 161 167 176 176 174 174 174 174 172 171 170 169 169 167 168 168 167 172 177 182 186 189 183 174 170 159 152 154 160 171 184 202 216 224 214 206 199 189 189 193 199 203 205 209 211 217 228 245 268 295 297 291 258
350 28 328 306 340 317 275 258 230 165 214 165 143 323 345 330 294 275 298 344 353 337 3 24 0 338 334 241 145 172 213 155 149 133 121 127 138 148 153 158 157 156 161 162 163 168 176 176 174 176 176 175 174 173 172 171 172 172 175 174 171 176 179 182 182 180 174 166 164 156 155 158 166 181 189 203 221 233 226 217 212 200 195 198 204 209 213 216 219 226 235 255 269 269 273 259 233
337 26 22 321 348 331 313 315 256 172 205 33 107 321 320 296 288 304 330 348 18 355 11 30 342 340 320 251 94 117 179 150 142 124 128 140 153 160 157 159 158 155 158 160 164 168 175 177 176 178 177 176 177 175 173 173 176 177 179 179 179 184 185 186 182 178 173 165 164 163 162 164 226 217 202 202 215 230 227 218 217 205 194 198 205 210 213 216 220 227 231 251 256 219 237 237 224
332 334 28 13 359 303 305 312 262 251 331 36 73 153 284 291 300 335 339 337 42 5 13 26 345 357 315 15 56 38 147 133 143 136 142 154 160 160 152 153 154 152 156 159 165 170 176 179 178 179 177 178 178 176 174 174 177 178 180 185 189 195 194 191 186 179 173 168 173 174 152 72 304 245 207 201 203 213 219 214 212 200 191 195 199 204 207 210 215 220 221 240 246 205 224 229 222
17 11 333 352 22 287 306 308 201 220 307 32 64 157 286 287 301 343 321 303 33 22 34 37 358 18 350 30 51 9 49 109 138 138 142 149 148 146 142 149 153 154 158 160 166 170 176 180 179 178 178 180 179 176 175 174 178 179 184 193 198 202 199 193 187 180 176 178 184 179 146 102 310 240 200 199 194 189 192 196 199 194 192 197 200 200 199 203 207 212 219 239 238 208 223 224 218
1 55 311 309 324 304 316 308 251 211 7 34 41 150 262 284 309 334 298 293 16 13 38 49 15 25 18 31 44 5 25 74 110 122 125 127 134 141 146 154 158 159 160 162 166 170 175 178 178 178 178 180 179 179 180 181 184 186 193 201 203 205 201 195 191 186 187 191 190 178 150 95 328 206 189 194 191 180 173 176 188 191 191 198 203 201 195 198 203 209 221 243 244 216 217 217 214
333 24 354 277 279 298 310 301 303 58 71 59 40 108 248 298 327 324 299 313 16 17 30 49 31 33 41 42 45 3 15 60 62 90 114 121 132 144 152 157 160 161 162 164 168 171 174 175 176 177 177 179 180 182 185 189 193 195 202 207 207 207 203 201 198 196 198 198 191 179 159 87 293 205 191 191 189 181 173 169 178 190 196 195 199 200 197 199 203 210 221 239 244 221 210 209 209
305 346 348 307 295 283 275 283 286 82 62 69 73 32 345 333 351 336 312 327 10 36 43 62 52 45 70 83 86 39 26 72 83 95 114 129 139 147 154 157 159 161 161 165 169 172 173 174 177 178 178 180 183 186 190 195 200 202 207 207 208 208 205 204 202 201 202 198 192 187 192 198 225 236 206 200 197 190 185 181 176 185 196 190 187 194 199 203 207 213 220 229 230 215 203 196 197
190 256 225 272 291 282 260 261 264 114 76 55 64 67 13 344 355 352 322 323 14 53 49 67 71 61 102 114 106 90 56 72 109 112 114 125 136 141 148 152 155 157 160 165 169 173 175 176 180 182 183 184 186 191 194 197 201 203 205 204 205 206 203 202 200 202 202 197 194 197 207 204 213 252 239 214 205 200 194 193 188 183 191 191 184 188 197 204 210 218 225 232 224 205 187 175 179
156 52 225 257 252 276 286 274 300 75 86 45 58 77 39 350 334 338 318 318 2 62 60 78 105 99 108 121 112 102 90 82 100 108 112 119 126 131 139 146 151 155 162 168 171 175 177 179 183 184 186 190 192 194 194 196 197 196 198 201 202 200 197 197 198 201 199 196 198 201 202 198 211 253 263 238 210 207 200 195 196 188 187 189 186 186 190 197 204 216 229 234 226 212 196 164 159
194 200 283 297 237 270 312 302 315 61 105 314 39 55 39 6 327 321 313 316 342 49 79 112 136 136 100 130 128 118 123 114 103 108 117 119 124 135 143 149 154 157 164 171 175 177 179 182 185 185 187 191 194 193 192 195 196 195 196 197 197 193 193 195 196 198 197 197 199 197 191 198 226 256 270 257 214 213 207 198 196 193 186 182 182 180 181 189 197 210 221 222 221 212 206 189 161
202 158 72 310 265 301 315 310 319 9 98 336 12 41 26 2 336 311 306 310 342 25 34 82 140 142 107 116 129 136 139 123 115 120 123 122 134 152 155 154 157 162 167 172 176 178 179 183 187 187 187 187 190 191 193 195 195 197 197 197 195 192 193 195 195 197 197 198 199 196 191 191 219 229 187 139 172 204 210 204 196 193 191 182 178 178 177 185 193 207 213 212 215 205 201 208 195
190 173 138 258 227 155 275 297 315 339 53 109 72 49 354 348 333 303 327 352 358 15 27 63 132 140 126 109 123 150 144 130 122 120 127 133 145 159 158 158 164 169 173 175 178 179 179 183 188 189 187 187 189 191 194 195 194 195 195 195 195 193 194 194 196 200 198 199 199 198 198 189 195 203 175 146 144 160 206 207 198 193 193 189 186 182 182 188 193 204 210 208 215 211 208 210 204
214 186 174 218 216 188 207 224 259 333 23 89 96 56 355 4 7 334 28 63 18 348 36 76 97 127 125 120 139 149 114 132 135 132 145 148 149 156 158 165 174 177 179 182 184 183 182 184 189 191 190 191 193 193 194 194 193 193 190 186 187 189 192 193 198 201 198 201 203 202 201 190 187 196 189 214 251 232 206 209 207 199 194 194 196 195 197 204 206 212 218 219 225 230 235 230 218
284 205 195 201 189 181 182 163 147 33 17 333 61 66 6 352 29 354 5 82 109 338 28 133 161 135 122 140 164 140 106 156 164 152 156 151 144 152 163 172 177 182 186 187 188 188 186 186 189 192 193 194 195 194 194 195 196 196 194 189 186 186 188 196 204 206 204 204 204 206 202 193 198 198 197 264 274 255 219 203 209 205 199 196 200 206 216 225 228 231 234 234 240 247 249 247 240
320 291 213 165 142 137 146 143 114 84 237 288 27 98 83 335 349 340 336 358 132 147 216 211 177 138 139 169 174 144 142 173 169 150 148 151 151 158 171 177 179 186 191 189 189 189 187 187 189 192 196 197 196 195 196 198 200 201 202 201 199 197 197 205 214 217 216 210 206 209 206 200 207 202 196 253 269 265 242 215 203 202 204 205 205 212 223 234 238 240 243 242 246 251 252 250 252
288 300 30 96 108 112 131 123 106 154 203 331 11 95 103 354 310 323 359 325 105 144 195 210 167 160 165 168 167 161 164 168 154 147 156 163 167 169 176 181 183 189 190 188 189 190 188 188 190 195 198 200 199 198 199 202 204 205 206 207 206 205 211 218 222 223 220 214 211 213 212 212 214 210 212 242 254 259 253 236 217 208 210 218 224 223 225 234 238 239 242 242 246 251 256 260 263
272 285 56 92 104 110 120 93 75 83 73 3 343 55 83 304 294 327 14 92 4 352 223 195 175 199 185 168 176 170 160 157 156 162 164 165 171 175 177 181 186 189 187 186 191 192 189 189 194 195 195 200 202 201 201 204 208 211 212 211 208 209 218 224 226 227 219 215 216 217 219 223 222 219 226 239 241 244 251 247 237 230 228 233 243 244 237 234 236 239 244 248 251 252 256 266 274
241 213 75 73 76 84 85 92 101 61 59 3 335 32 84 308 308 336 9 39 350 320 292 208 179 196 197 186 181 159 141 147 155 157 151 154 168 175 177 180 185 187 185 185 190 191 188 191 195 193 195 202 204 203 204 207 210 214 216 216 214 214 219 223 225 225 217 216 219 221 224 227 226 226 231 238 244 244 246 251 249 244 243 248 258 260 248 238 236 242 252 259 260 259 259 265 274
130 81 47 33 23 42 39 56 99 66 29 336 350 21 96 40 306 285 31 335 303 294 290 278 162 176 194 192 168 148 134 126 130 126 129 146 162 170 172 176 182 184 182 182 186 189 189 191 190 192 200 203 202 205 208 211 213 216 219 218 219 222 222 222 223 220 216 215 218 221 225 227 226 229 232 235 243 250 249 252 256 255 250 251 262 265 254 241 238 245 257 264 265 263 262 264 269
75 53 42 18 339 16 26 348 46 69 328 311 351 2 89 84 279 275 292 279 277 266 273 292 301 209 190 177 152 136 121 122 133 138 144 147 153 162 166 169 175 178 181 184 188 192 193 193 191 193 203 203 202 208 212 216 216 216 218 219 223 229 227 223 223 222 218 215 219 226 230 232 231 233 235 236 240 247 247 246 253 262 259 255 258 263 255 241 238 244 256 265 269 267 263 262 263
44 39 45 50 351 5 28 350 17 64 263 302 344 40 73 142 235 296 316 308 304 271 257 267 272 265 190 158 134 116 122 142 146 146 154 153 147 158 159 164 172 174 180 187 192 197 199 199 198 198 203 205 208 216 218 221 223 219 218 221 227 232 227 224 225 224 221 220 223 230 234 237 238 237 238 237 238 240 242 242 245 261 270 263 255 250 247 245 242 246 257 266 271 275 267 257 255
67 55 66 86 74 41 15 357 29 334 257 293 315 61 54 281 241 321 324 330 320 286 275 274 270 267 125 123 116 118 133 145 143 144 157 160 160 162 158 164 171 170 178 188 194 201 204 204 203 200 203 208 215 221 220 223 227 223 221 225 229 229 224 223 225 224 224 226 229 235 240 244 244 244 244 243 241 237 237 237 234 244 262 266 262 255 248 248 249 251 258 265 269 273 272 261 250
151 205 141 118 141 111 30 172 121 215 252 296 319 18 13 319 330 325 321 330 8 37 22 19 41 68 99 104 104 115 119 121 128 140 153 159 161 155 149 158 168 167 178 190 195 200 202 202 203 202 206 214 220 224 224 226 228 225 224 228 229 227 225 226 228 229 229 232 237 243 247 250 252 253 254 254 249 240 236 233 229 235 246 250 254 257 253 251 253 257 260 264 265 265 268 264 255
299 251 88 38 239 126 101 114 131 175 207 331 337 327 294 277 308 337 1 36 49 57 45 45 53 56 75 86 92 107 113 110 116 130 141 146 144 135 131 148 168 171 178 193 199 198 195 193 200 210 216 222 227 227 224 225 228 226 226 228 229 228 228 229 232 234 234 237 244 249 253 256 259 262 262 261 257 249 243 238 235 238 243 246 247 246 250 252 254 258 262 266 266 264 262 260 256
21 25 61 246 200 114 109 57 5 61 93 16 359 337 310 291 15 359 26 41 42 51 47 51 60 61 73 87 100 112 115 109 107 120 120 115 121 125 131 146 154 158 174 194 205 205 204 208 210 216 226 230 232 229 222 220 225 230 230 230 229 228 229 233 238 240 240 242 248 253 257 260 262 265 266 265 262 256 252 247 245 245 245 249 252 249 248 250 253 256 259 263 267 267 266 262 255
113 172 224 181 78 67 92 94 356 32 73 349 357 350 321 3 15 357 23 33 42 55 54 58 67 70 75 86 99 104 105 109 116 116 109 106 112 121 134 137 132 154 181 192 194 196 217 233 231 223 224 228 230 230 225 223 226 232 236 236 233 231 232 237 243 246 244 245 250 255 258 261 265 269 268 267 266 261 257 254 253 254 254 253 254 255 253 250 251 253 253 254 259 265 269 268 262
121 168 179 116 98 16 34 74 3 47 62 320 337 313 303 36 1 357 24 28 36 52 57 60 64 72 80 82 85 87 93 106 113 98 100 113 105 116 131 124 126 164 189 193 189 201 232 241 236 226 224 223 223 224 226 227 230 234 239 241 240 240 240 243 249 254 252 249 253 261 265 267 270 271 269 268 269 266 262 259 257 258 259 259 259 259 259 254 250 250 250 251 255 260 268 273 274
51 100 48 59 128 152 135 106 146 114 119 264 358 352 338 24 353 353 9 16 38 55 60 62 63 67 74 77 76 72 76 83 81 78 81 83 84 107 134 125 131 166 187 196 205 215 221 223 223 223 225 225 223 224 226 231 234 235 237 241 244 245 246 247 250 254 257 255 256 264 268 270 271 271 268 268 270 271 272 272 271 267 264 263 263 264 264 262 256 251 249 251 254 258 264 271 276
94 102 271 292 74 101 124 61 43 117 130 204 89 39 308 336 1 350 351 7 59 77 75 73 72 67 66 68 68 66 69 67 62 68 73 76 75 73 104 145 167 187 197 198 201 206 209 214 222 228 234 237 239 240 237 240 243 240 239 244 248 248 247 247 246 247 254 258 259 261 261 261 264 267 267 268 267 269 273 274 276 282 281 274 270 268 267 265 261 256 252 252 255 258 261 266 270
150 159 198 173 128 123 105 39 341 83 116 176 137 112 282 325 359 346 350 19 77 90 84 80 76 69 67 66 66 69 72 71 70 71 73 81 86 84 91 117 143 160 177 177 184 199 200 203 218 228 234 237 242 246 243 243 244 238 233 236 240 240 240 245 246 244 248 253 254 258 260 258 258 263 266 270 270 270 274 272 268 276 285 284 280 277 273 267 263 260 256 254 257 261 263 265 268
Height
760 760 759 759 759 758 760 761 772 779 781 789 785 782 774 763 761 760 757 753 753 747 741 740 739 740 744 749 747 744 746 751 755 765 765 745 740 744 743 745 748 751 754 758 762 765 768 770 773 775 778 779 781 783 784 785 786 786 787 788 789 790 791 792 793 794 794 795 796 796 797 797 798 798 798 799 799 800 801 802 802 803 803 804 804 804 804 804 804 805 804 804 804 804 804 804 804
760 760 759 759 758 760 763 763 777 785 787 791 782 777 768 760 763 761 755 750 749 743 740 740 740 741 741 742 741 743 746 745 744 747 746 742 744 745 746 747 748 752 754 759 762 765 769 770 773 776 778 779 782 784 785 786 786 787 788 789 790 791 792 793 794 794 795 796 796 797 798 798 799 799 799 800 801 801 802 803 804 804 804 805 805 805 806 806 806 806 805 805 805 805 805 805 805
760 760 759 760 759 760 764 767 778 788 790 788 777 770 762 761 763 757 750 744 743 741 741 741 741 741 741 744 745 747 748 744 743 743 744 744 745 747 749 748 750 753 754 759 762 766 768 771 774 776 779 780 782 784 786 786 787 788 789 790 791 792 793 794 795 795 796 797 797 798 798 799 799 800 800 801 802 803 803 804 805 805 805 806 806 806 807 807 807 806 806 806 806 806 806 806 806
760 760 759 759 762 764 769 774 780 785 786 782 775 768 761 761 758 753 747 742 742 742 741 741 742 741 741 746 745 747 748 744 742 742 744 745 745 748 750 751 753 754 756 760 763 766 769 772 775 777 780 781 783 785 786 787 788 789 790 791 792 793 794 795 795 796 796 797 798 799 799 800 800 801 801 802 803 804 805 805 806 806 807 807 807 808 808 808 808 807 807 808 808 807 807 807 807
759 760 759 759 763 766 771 778 781 782 778 773 772 766 759 757 754 751 746 743 743 742 741 742 743 741 741 743 743 745 745 743 742 741 743 744 747 749 751 753 754 756 758 761 764 767 769 773 775 778 780 782 784 786 787 788 789 790 791 792 793 794 794 795 796 796 797 798 799 799 800 800 801 802 803 804 805 805 806 807 807 807 808 808 809 809 809 809 809 808 808 809 809 809 809 808 808
759 760 759 759 762 764 771 778 781 781 771 765 767 762 758 755 753 751 747 745 742 741 741 741 743 742 743 743 741 742 741 742 742 741 742 744 747 750 753 755 756 757 759 762 765 767 770 774 776 779 781 783 785 787 788 789 790 791 792 792 793 794 795 796 797 797 798 799 799 800 801 801 802 803 804 805 806 806 807 808 808 808 809 809 810 810 810 810 810 810 810 810 810 810 810 810 809
759 760 761 763 765 767 776 779 779 780 770 762 763 760 757 754 751 750 749 749 745 742 741 742 742 743 746 744 743 741 738 740 740 741 742 744 748 750 753 755 757 759 761 764 766 769 772 775 778 780 782 784 786 788 789 790 791 792 792 793 794 795 796 797 797 798 798 799 800 801 802 802 803 804 805 806 807 807 808 809 809 809 810 810 811 811 811 811 811 811 811 811 811 811 811 811 811
759 761 764 768 772 775 780 780 779 778 769 762 760 757 754 752 750 750 750 752 750 746 743 742 742 747 747 744 746 742 738 740 740 742 743 745 748 751 754 756 757 760 763 765 768 770 773 776 778 781 783 785 787 788 790 791 792 793 793 794 795 796 796 797 798 798 799 800 801 802 803 803 805 805 807 807 808 808 809 810 810 810 811 811 812 813 812 812 812 812 812 813 813 812 812 812 812
758 762 766 770 777 781 781 780 778 773 767 762 758 753 749 747 747 749 750 750 749 747 746 744 743 749 748 746 747 742 740 740 741 744 745 747 748 750 753 755 758 761 765 766 769 772 774 777 779 782 784 786 788 789 790 792 793 793 794 794 795 796 797 798 798 799 799 801 802 803 804 805 805 806 807 808 809 809 810 811 811 811 812 813 813 813 813 813 813 813 814 814 814 814 814 814 814
760 763 767 773 778 783 784 782 779 773 767 761 757 752 748 745 744 746 748 748 746 746 745 743 744 748 748 749 748 742 741 740 741 745 746 748 749 749 752 756 758 760 765 767 770 773 776 778 780 783 784 787 788 790 791 792 793 794 794 795 796 796 797 798 798 799 800 801 802 803 804 805 806 807 808 809 810 810 811 812 812 812 813 814 814 815 814 814 814 814 815 815 815 815 815 815 815
764 765 766 775 781 784 786 784 780 773 766 760 756 751 749 747 745 744 745 746 745 745 744 743 746 747 748 750 747 742 741 740 742 744 746 749 750 750 752 756 759 761 765 768 771 774 776 779 781 783 785 787 789 790 792 793 794 794 795 795 796 797 798 798 799 800 801 802 803 804 805 806 807 808 809 809 810 811 812 813 813 813 814 815 815 816 815 815 815 816 816 817 817 817 817 817 817
767 768 769 777 783 784 783 783 779 772 766 762 757 750 749 749 750 748 746 745 745 747 745 743 743 743 750 752 746 742 741 741 742 744 746 748 750 752 753 756 759 762 766 769 772 775 777 780 782 784 786 788 790 791 792 793 795 795 796 796 797 797 798 799 800 801 802 803 804 805 806 807 808 809 809 810 811 812 813 813 814 814 815 816 816 816 816 817 817 817 818 818 818 818 818 818 818
767 769 771 778 780 780 779 779 776 772 769 763 757 751 749 750 750 749 748 747 747 749 744 740 739 740 749 750 744 743 742 741 742 744 746 748 750 753 754 756 760 764 767 770 773 776 778 780 782 785 787 789 790 792 793 794 795 796 796 797 798 798 799 800 801 802 802 803 805 806 807 808 809 810 810 811 812 813 814 814 815 815 816 817 817 817 818 818 818 818 819 819 819 819 819 820 820
765 766 770 777 778 776 775 776 774 774 771 760 754 751 750 750 748 747 750 751 750 748 741 736 737 740 746 747 746 744 741 741 742 744 746 748 750 753 755 757 761 765 768 771 774 777 779 781 783 785 787 789 791 793 794 795 796 797 797 798 799 799 800 801 802 803 803 805 805 807 808 809 810 810 811 812 813 814 815 815 816 816 817 817 818 818 819 819 819 819 820 821 821 821 821 821 821
763 765 769 775 777 776 774 774 773 774 769 759 754 752 751 749 747 748 750 754 750 743 739 736 735 740 744 743 743 740 738 739 741 743 744 747 750 752 755 757 762 766 769 772 775 777 780 782 784 786 788 790 791 793 795 796 797 798 798 799 799 800 801 802 803 804 805 805 806 807 808 809 810 811 812 813 814 815 815 816 817 817 818 818 819 819 820 820 820 820 821 821 822 822 822 823 823
761 763 770 777 778 779 774 772 773 774 767 757 752 752 753 748 746 749 748 751 748 741 741 739 734 737 737 734 732 731 735 737 738 741 743 746 749 752 754 758 763 766 770 773 776 778 780 783 784 787 788 790 792 793 795 796 798 798 799 800 800 802 802 803 804 805 806 806 807 808 809 810 811 812 813 813 814 815 816 817 818 818 818 819 820 820 821 821 821 821 821 822 823 823 824 824 824
760 764 774 779 780 779 773 770 771 770 764 756 751 752 756 750 747 748 746 747 747 742 740 738 734 733 733 730 726 727 733 735 737 739 742 745 747 751 755 759 763 767 771 774 777 779 781 783 785 787 789 791 793 794 796 797 798 799 800 801 802 803 803 805 805 806 807 807 808 809 810 811 811 812 813 814 815 816 817 818 818 819 819 820 821 821 822 822 822 822 822 823 824 825 825 825 826
763 770 777 779 779 775 769 766 765 765 762 756 752 753 757 754 750 749 746 746 746 744 740 736 734 733 731 729 728 729 731 733 736 738 741 746 747 750 755 759 763 767 771 774 777 780 782 784 786 788 790 792 793 794 796 797 799 799 800 801 802 804 804 806 806 807 808 808 809 810 811 811 812 813 814 815 816 817 818 818 819 820 820 821 822 822 823 823 823 823 823 824 825 825 826 826 827
765 772 777 777 774 769 763 763 761 761 760 756 754 754 756 755 752 751 750 748 748 747 741 736 737 735 732 730 731 731 732 735 738 739 742 745 747 750 754 759 763 767 771 775 778 780 783 785 787 789 790 792 793 795 796 798 799 800 801 802 803 804 805 806 807 808 809 809 810 811 812 812 813 814 815 816 816 817 818 819 820 820 821 822 822 823 824 824 824 824 824 825 825 826 827 827 827
764 770 776 772 767 765 761 760 759 758 758 757 756 755 755 754 753 753 753 752 749 748 743 739 739 737 735 733 733 732 734 739 743 746 747 746 748 751 754 759 763 767 771 774 778 781 784 786 787 789 791 792 794 795 797 798 800 800 801 802 804 805 806 807 808 809 810 810 811 812 812 813 814 814 815 816 817 818 818 819 820 821 821 822 823 824 825 825 825 825 825 826 826 827 828 828 828
764 767 770 765 762 764 759 756 756 756 758 758 756 756 754 752 753 753 754 755 749 745 743 740 738 736 735 734 735 737 738 740 743 749 752 751 750 752 756 760 763 767 771 775 778 781 784 786 788 790 791 793 794 796 797 799 800 801 802 803 804 805 807 808 809 810 810 811 812 812 813 813 814 815 816 817 817 818 819 820 820 821 822 823 824 824 825 826 826 826 827 827 827 828 828 829 829
763 764 763 760 761 762 756 753 754 754 757 758 757 755 752 750 752 751 753 755 748 742 741 739 737 737 738 736 738 740 742 744 744 747 753 754 752 753 756 760 764 768 772 775 778 782 785 787 788 790 792 793 795 797 798 799 800 801 802 804 805 806 807 808 809 810 811 812 812 813 813 814 815 815 816 817 818 819 819 820 821 821 822 823 824 825 826 827 827 827 828 828 828 828 829 829 830
762 763 759 757 758 758 753 751 751 752 755 756 754 752 750 750 750 749 750 750 744 740 740 738 737 738 740 741 740 738 740 744 744 743 749 753 752 753 756 759 764 768 772 775 778 782 785 787 789 790 792 794 796 797 799 800 801 802 803 804 805 806 808 809 810 810 811 812 813 813 814 815 815 816 817 817 818 819 820 820 821 822 823 823 824 826 827 827 828 828 829 829 828 829 829 830 830
762 762 758 756 755 755 752 751 751 753 755 754 752 752 750 749 749 750 750 747 742 740 739 738 738 739 741 742 740 736 733 738 742 742 746 750 751 753 756 759 763 768 772 775 778 782 785 787 789 791 793 795 796 798 799 800 801 803 803 805 806 807 808 809 810 811 812 812 813 814 814 815 816 816 817 818 818 819 820 820 821 822 823 824 825 826 827 828 829 829 830 830 830 829 829 830 830
761 761 758 757 756 755 753 754 755 757 757 754 754 752 748 748 750 750 748 744 741 739 739 738 739 741 742 739 737 738 734 735 741 743 746 749 750 754 757 760 764 768 772 775 778 782 785 787 789 791 793 795 797 798 799 800 802 803 804 805 806 807 809 809 810 811 812 813 814 814 815 815 816 817 817 818 819 819 820 821 821 822 823 824 825 826 827 828 829 830 830 830 831 830 830 830 830
759 758 758 757 755 754 754 755 755 757 756 755 754 750 747 749 750 748 744 743 740 738 738 738 739 741 742 738 735 739 736 734 739 741 744 747 749 754 758 761 765 768 771 775 778 782 785 788 790 792 794 795 797 798 799 800 802 803 804 805 807 808 809 809 810 811 812 813 814 815 815 816 816 817 817 818 819 819 820 820 821 822 823 824 825 826 827 828 829 830 830 831 831 831 831 830 830
757 757 756 755 755 754 755 753 752 754 754 754 754 749 749 749 748 746 742 741 740 738 738 737 739 740 742 738 734 738 734 730 736 741 743 746 748 753 758 762 765 768 771 775 778 781 785 787 789 792 794 795 797 798 799 800 802 803 804 806 807 808 809 809 810 811 812 813 814 815 815 816 817 817 818 818 819 819 820 820 821 822 822 824 825 826 827 828 829 830 830 831 831 831 831 830 830
756 757 757 755 756 754 752 752 751 753 751 751 753 750 749 749 747 745 741 740 739 738 738 738 739 739 739 737 733 738 736 731 735 740 744 749 751 753 757 761 764 767 771 774 777 781 784 786 789 791 793 795 797 798 799 800 802 803 805 806 807 808 808 809 811 812 813 814 814 815 816 816 817 818 818 818 819 819 820 820 820 821 822 823 825 826 827 828 829 830 830 831 831 831 831 831 830
757 759 760 758 755 752 751 751 750 751 749 749 751 750 751 751 747 744 742 741 739 738 739 740 740 737 738 738 734 737 738 736 737 739 744 751 755 756 757 759 762 766 770 773 777 780 783 786 788 791 793 795 796 797 799 801 802 804 805 806 807 808 809 810 811 812 813 814 815 815 816 817 818 818 818 819 819 819 820 820 820 821 822 823 824 825 826 828 828 830 830 830 831 831 831 831 831
759 761 763 762 759 754 752 753 751 750 750 749 750 754 756 753 748 744 744 742 739 740 741 741 741 737 740 738 732 737 740 739 739 739 743 749 754 755 756 759 762 765 769 774 777 780 783 785 788 790 792 794 796 798 799 801 802 804 805 806 807 808 809 810 811 812 813 814 815 816 817 817 818 818 818 819 819 819 820 820 820 821 822 823 824 825 826 827 828 829 830 830 831 831 831 831 831
762 764 765 769 768 757 751 753 752 751 751 749 750 757 758 752 749 746 744 742 739 742 742 741 739 737 739 732 729 738 740 737 737 737 742 747 751 755 758 762 765 767 770 774 777 780 783 785 788 790 792 794 796 797 799 801 803 804 805 806 807 808 809 810 812 813 814 815 816 816 817 818 818 818 818 819 819 819 819 820 820 821 821 822 823 824 825 826 827 829 830 830 830 830 831 831 831
767 768 768 772 772 761 752 751 752 751 751 751 752 760 760 752 750 748 745 742 740 743 743 741 739 736 736 729 731 742 739 736 736 738 745 750 753 756 760 764 766 768 770 773 777 780 783 785 788 790 792 794 796 798 799 801 803 804 805 806 807 808 809 811 812 813 814 815 816 817 817 818 818 818 818 819 819 819 820 820 821 821 822 822 823 824 825 826 827 828 829 830 830 831 831 831 831
771 773 771 771 772 766 757 750 750 752 752 754 755 760 761 753 750 749 745 741 741 744 744 743 740 736 735 731 737 745 740 738 740 742 749 752 754 757 760 763 766 767 769 772 776 779 783 785 788 790 792 794 795 798 800 801 803 804 805 806 808 809 810 811 812 813 814 815 816 817 817 818 818 818 819 819 819 819 820 820 821 821 822 822 823 824 824 826 827 828 829 830 830 831 831 831 831
773 775 774 773 772 769 763 751 748 752 754 759 761 761 760 754 751 749 744 741 743 744 745 745 741 738 738 738 744 749 744 743 744 746 751 754 755 759 761 763 765 767 769 772 775 778 782 785 788 790 791 794 795 798 800 801 803 805 806 807 808 809 810 811 812 813 814 815 816 817 818 818 818 819 819 820 820 820 820 821 821 821 822 822 823 823 824 825 826 827 828 829 830 831 831 831 831
774 776 776 775 773 770 767 756 750 753 756 762 765 761 760 756 752 749 743 742 744 745 745 745 744 744 745 746 750 751 748 748 748 749 753 756 758 760 762 764 766 768 770 773 776 778 781 785 787 789 791 792 795 797 799 801 803 804 806 807 808 809 810 811 813 814 815 816 816 817 818 818 819 819 820 820 820 820 820 821 821 822 822 822 823 823 824 825 826 827 828 829 830 831 831 831 831
771 775 776 777 775 769 764 755 751 754 759 764 766 763 762 759 754 751 745 744 745 745 746 748 750 751 751 753 755 754 753 752 750 751 755 759 760 760 762 764 766 769 772 774 777 778 781 784 786 788 790 791 793 796 798 800 802 804 805 807 808 809 811 812 813 814 815 816 816 817 818 819 819 819 820 820 820 821 821 821 821 822 822 822 823 823 824 825 826 827 827 828 829 831 831 831 831
770 773 775 776 776 769 760 756 752 754 759 766 768 765 763 760 757 754 749 747 747 747 749 752 755 756 755 756 756 755 755 753 752 753 756 760 762 762 762 764 767 769 772 774 776 778 779 782 785 787 789 791 792 794 797 799 801 803 804 806 808 809 811 812 813 814 815 816 816 817 818 819 819 819 820 820 820 820 821 821 821 822 822 822 823 823 824 825 826 826 827 828 829 830 831 831 831
769 772 774 774 774 768 762 758 754 753 757 764 767 764 764 761 759 756 752 752 752 751 752 754 756 757 757 756 755 755 755 754 755 756 758 761 764 765 764 764 766 768 770 773 775 777 779 781 784 786 789 790 792 794 796 798 800 802 803 805 807 809 811 812 813 814 814 815 816 817 818 819 819 820 820 820 820 820 821 821 821 822 822 823 823 823 824 825 825 826 826 827 828 829 830 831 832
769 772 774 772 770 770 766 759 755 754 755 762 765 764 764 762 759 757 755 755 755 753 753 754 756 758 758 757 755 756 756 755 757 759 760 762 764 766 765 765 766 768 770 772 775 777 778 780 783 786 788 790 792 794 796 798 800 802 804 806 807 809 811 812 813 813 814 815 816 818 818 819 819 820 820 820 820 820 820 821 821 822 822 823 823 824 824 825 825 826 826 827 828 828 829 831 832
769 772 773 770 769 771 769 762 759 757 755 760 763 763 765 763 760 759 756 757 757 755 754 754 755 757 757 756 755 756 758 758 758 760 761 762 764 765 765 766 767 769 771 773 776 778 778 780 782 784 787 789 791 793 796 798 801 803 804 806 808 809 810 811 812 813 814 815 816 817 818 819 819 819 820 820 820 820 821 821 822 822 822 823 823 824 825 825 826 826 826 827 827 828 829 830 831
766 766 767 766 764 764 764 764 762 759 759 760 760 763 766 765 764 762 758 760 760 757 756 755 755 755 756 757 757 758 761 761 759 759 760 762 763 765 766 766 767 769 771 773 775 777 778 779 781 784 786 788 791 793 796 798 800 802 804 806 808 809 810 811 812 813 814 815 816 817 818 818 819 819 819 819 820 820 821 821 822 822 822 822 823 824 825 825 826 826 826 827 827 828 829 829 830
760 758 760 760 759 759 761 762 761 762 765 761 759 768 772 767 766 764 761 763 763 760 758 757 757 757 758 760 761 761 763 762 760 759 760 762 764 765 766 766 767 770 771 773 775 776 777 778 780 783 785 788 790 793 795 797 799 801 803 805 806 808 809 810 811 812 813 814 815 816 817 818 819 819 819 819 820 820 821 821 821 822 822 822 822 823 824 825 825 826 826 827 827 828 828 829 830
759 755 755 757 757 758 760 759 759 765 769 762 759 769 775 769 766 765 763 763 763 763 761 758 757 758 759 762 762 762 764 763 762 763 764 764 764 764 764 765 767 769 770 772 775 777 777 778 780 783 785 787 790 793 795 797 799 800 802 803 805 806 808 809 810 811 812 813 815 816 817 818 818 818 819 819 819 819 820 820 821 821 822 822 822 823 823 824 824 825 825 826 826 827 828 828 829
758 754 752 754 754 755 758 756 758 765 767 762 760 765 771 772 767 764 764 763 762 762 761 759 757 757 758 762 762 762 764 764 763 765 765 764 763 763 764 765 766 767 769 772 775 776 777 779 781 783 785 788 790 792 794 796 798 800 801 803 804 806 807 809 810 811 812 813 814 815 816 817 818 818 818 818 819 819 820 820 820 821 821 822 822 822 823 823 823 824 824 825 825 826 827 827 828
757 753 751 753 754 756 756 754 759 766 767 767 767 765 770 774 768 763 764 763 761 759 758 758 758 756 757 759 758 759 761 761 761 761 761 762 763 764 765 766 767 768 770 772 774 776 778 780 781 784 787 789 791 792 794 796 798 799 801 802 804 806 807 809 810 810 812 813 814 815 816 816 817 817 817 818 818 819 819 820 820 820 821 821 822 822 822 822 823 823 823 824 825 825 826 826 827
755 753 753 754 756 758 758 756 760 765 771 775 772 768 772 777 772 768 768 767 764 761 758 757 758 756 756 756 756 757 759 759 759 760 761 762 763 764 765 766 768 770 772 774 776 777 779 780 782 785 786 789 791 793 795 796 798 799 801 803 804 806 807 808 809 810 811 812 813 814 815 816 816 817 817 817 818 818 819 819 819 820 820 821 821 821 821 822 822 822 823 823 823 824 825 825 826
752 752 754 756 756 758 761 762 760 764 775 778 773 770 774 778 776 773 771 769 767 764 759 757 757 757 756 756 756 757 757 758 759 760 762 762 763 763 765 766 769 771 774 776 777 778 778 780 783 785 785 787 791 794 795 797 798 800 801 803 804 805 806 807 808 809 810 811 812 813 814 815 815 816 816 817 817 818 818 818 818 819 819 819 820 820 820 821 821 822 822 822 823 823 823 824 825
752 754 756 759 760 759 761 762 761 770 781 777 771 770 772 778 779 773 769 766 764 764 760 756 756 756 756 755 756 756 757 758 758 760 761 762 763 764 766 768 771 773 775 777 777 777 778 780 783 785 786 789 792 794 796 797 799 800 802 803 804 805 805 806 807 808 809 810 811 812 813 813 814 815 815 816 816 817 817 817 818 818 818 818 819 819 820 820 821 821 821 822 822 822 822 823 823
755 757 760 764 768 768 769 771 773 780 782 773 768 769 771 776 775 769 766 763 761 761 759 756 756 756 755 754 756 756 757 758 758 760 761 762 764 765 767 770 772 774 775 776 776 776 777 779 782 785 788 790 793 795 797 798 799 800 801 802 803 804 804 805 806 807 808 809 810 811 811 812 813 813 814 814 815 815 816 816 816 816 817 817 817 818 819 819 820 820 820 821 821 821 821 821 822
758 759 762 767 774 777 780 785 787 787 781 769 764 767 772 774 769 765 763 760 758 758 757 756 755 754 754 754 757 758 758 759 760 761 762 764 765 766 769 771 773 775 775 775 775 776 777 780 783 787 789 791 793 795 796 798 799 800 801 802 802 802 803 804 805 806 807 808 808 809 810 810 811 812 812 813 813 814 814 815 815 815 815 816 816 817 817 818 818 819 819 819 820 820 820 820 821
760 758 758 764 770 775 782 787 789 789 783 772 765 769 776 775 768 763 759 756 756 755 755 755 753 752 753 755 757 759 759 760 761 762 763 764 765 767 771 773 774 775 775 774 774 776 779 782 785 788 790 791 793 795 796 797 799 799 800 800 801 801 802 803 804 805 806 806 807 808 809 809 810 810 811 811 812 813 813 813 813 813 814 814 815 815 816 816 817 817 818 818 818 819 819 819 820
760 757 758 763 762 767 778 783 783 783 783 779 774 773 772 769 765 759 756 755 754 753 753 754 754 754 755 757 759 760 760 760 761 761 762 763 765 769 771 773 774 775 774 773 774 778 781 783 785 787 789 791 792 794 795 797 798 798 798 799 800 800 801 802 803 804 805 805 806 807 807 808 808 809 809 810 811 811 812 812 812 812 812 813 813 814 815 815 815 816 816 816 816 817 817 818 818
760 759 760 761 757 759 771 779 779 779 782 782 780 776 769 766 766 759 756 757 755 754 755 755 757 757 757 759 760 760 760 760 760 760 761 764 766 769 771 772 773 774 774 774 775 778 780 780 781 784 787 789 791 793 794 795 796 797 798 799 800 800 801 802 802 803 804 805 805 805 806 807 807 807 808 808 809 810 810 810 810 810 810 811 812 813 813 814 814 814 814 814 815 815 816 816 816
756 760 757 756 757 759 766 775 779 781 784 783 780 781 777 774 773 765 760 761 760 758 759 758 758 758 758 760 759 760 761 760 760 761 763 765 766 768 770 771 772 773 774 775 777 778 779 778 779 782 787 789 791 792 793 793 794 795 797 799 799 800 800 801 802 802 803 804 804 804 805 805 806 806 806 807 807 807 808 808 809 809 809 809 810 811 812 813 813 813 813 813 813 814 814 814 815
749 752 750 756 764 766 769 775 778 781 789 788 780 780 780 777 776 771 766 766 764 762 761 760 760 760 759 760 760 761 762 761 762 763 764 766 766 769 771 771 772 772 773 774 776 777 778 780 782 785 788 789 790 791 791 791 793 794 796 797 798 798 799 800 802 803 802 802 803 804 804 805 805 805 805 805 805 805 805 806 806 807 807 808 808 809 810 811 812 812 812 812 812 812 813 813 813
748 749 752 756 761 766 769 772 773 777 789 791 782 779 779 776 775 773 770 768 765 765 764 762 761 761 760 762 763 764 764 763 764 765 765 766 766 768 770 771 772 772 773 775 776 779 781 784 786 787 788 789 790 790 789 790 791 793 796 796 796 796 798 799 801 802 801 801 802 803 803 803 803 803 803 803 803 803 804 804 804 805 805 806 806 807 809 809 810 810 810 810 810 811 811 811 812
750 754 757 758 761 765 766 770 772 773 780 787 785 784 781 774 773 773 771 769 766 765 765 763 763 762 762 764 766 766 766 766 766 766 767 766 766 766 768 771 773 774 776 777 780 782 784 785 786 787 788 788 788 788 788 789 791 793 795 795 795 795 796 797 798 800 800 801 802 801 801 801 802 801 801 801 801 801 802 802 802 802 803 804 804 805 807 807 807 807 807 808 808 809 809 809 810
746 750 752 755 760 763 766 774 777 773 775 780 783 786 782 773 771 772 771 768 766 765 764 764 764 764 765 766 767 768 768 768 768 768 768 769 768 768 769 772 774 776 778 780 782 783 783 784 785 786 787 788 787 787 788 789 791 792 793 794 794 794 795 796 796 798 799 800 801 800 799 800 800 800 799 799 799 799 799 800 801 800 801 801 802 803 804 805 805 805 805 805 806 806 806 807 807